Flag for Austria Weather past 2 weeks in Eisenstadt, Burgenland, Austria

Now
34 °F

Fog.


Feels Like: 30 °F
Forecast: 29 / 37 °F
Wind: 5 mph from Northwest

Location: Eisenstadt

Current Time: Jan 25, 2015 at 11:39:00 AM

Latest Report: Jan 25, 2015 at 11:00 AM


Visibility: N/A

Pressure: 30.15 "Hg

Humidity: 85%

Dew point: 30 °F

Location of EisenstadtLocation

Historic Weather in Eisenstadt — Graph

°F

Eisenstadt temperature yesterday

Maximum temperature yesterday: 38 °F (at 12:00 AM)
Minimum temperature yesterday: 35 °F (at 9:00 PM)
Average temperature yesterday: 37 °F

Past Weeks' High & Low Weather Summary

 TemperatureHumidityPressure
High67 °F (Jan 10, 1:00 PM)99% (Jan 20, 4:00 AM)30.25 "Hg (Jan 20, 4:00 AM)
Low29 °F (Jan 13, 8:00 AM)42% (Jan 10, 11:00 PM)29.72 "Hg (Jan 10, 1:00 PM)
Average40 °F78%29.99 "Hg
* Reported Jan 10 10:00 AM — Jan 25 10:00 AM, Eisenstadt, Weather by CustomWeather, © 2014

Note: Actual official high and low records may vary slightly from our data, if they occured in-between our weather recording intervals... More about our weather records

Advertising

Eisenstadt weather history for previous 24 hours

 ConditionsComfort  
Time TempWeatherWind HumidityBarometerVisibility
10:00 AM
Jan 25
34 °FLight snow. Overcast.5 mph85%30.14 "Hg3 mi
9:00 AM33 °FFog.5 mph85%30.11 "HgN/A
8:00 AM33 °FFog.7 mph82%30.10 "HgN/A
7:00 AM33 °FLight snow. Overcast.8 mph81%30.08 "Hg6 mi
6:00 AM33 °FOvercast.9 mph80%30.05 "Hg7 mi
5:00 AM34 °FChilly.8 mph76%30.04 "HgN/A
3:00 AM33 °FFog.12 mph83%30.01 "HgN/A
2:00 AM33 °FFog.12 mph86%30.00 "HgN/A
1:00 AM33 °FOvercast.10 mph89%29.98 "Hg6 mi
12:00 AM34 °FFog.10 mph85%29.97 "HgN/A
11:00 PM
Jan 24
35 °FChilly.10 mph83%29.96 "HgN/A
9:00 PM35 °FFog.6 mph87%29.96 "HgN/A
8:00 PM35 °FFog.3 mph86%29.96 "HgN/A
7:00 PM36 °FOvercast.5 mph84%29.96 "Hg6 mi
6:00 PM37 °FChilly.6 mph80%29.93 "HgN/A
5:00 PM37 °FChilly.7 mph77%29.92 "HgN/A
4:00 PM38 °FChilly.6 mph77%29.93 "HgN/A
3:00 PM38 °FChilly.6 mph72%29.93 "HgN/A
2:00 PM38 °FSprinkles. Cloudy.5 mph73%29.93 "HgN/A
1:00 PM37 °FLight snow. Overcast.7 mph76%29.95 "Hg7 mi
12:00 PM38 °FChilly.7 mph73%29.97 "HgN/A
11:00 AM38 °FChilly.6 mph73%29.98 "HgN/A
Weather by CustomWeather, © 2014

See weather overviewHow to use our weather pages